Wind_Speed
43 42 41 41 39 39 39 39 36 35 35 33 33 32 32 32 32 32 30 30 29 28 27 27 26 25 24 24 23 22 21 20 20 19 19 18 18 18 18 17 17 17 17
44 44 44 42 41 40 40 41 40 38 37 36 35 35 34 34 33 33 32 32 31 30 29 28 28 27 26 25 25 23 22 22 21 21 20 19 19 19 19 19 19 19 19
44 44 44 44 43 42 41 41 42 40 39 39 37 36 36 36 35 34 34 33 33 32 32 31 30 30 29 27 26 25 24 24 24 23 22 22 21 21 21 20 20 20 20
44 45 45 45 45 44 43 42 43 42 41 40 40 38 38 38 37 36 36 35 34 34 34 33 32 32 31 30 29 28 26 26 25 25 24 24 23 23 23 22 22 22 22
44 44 45 45 46 46 46 45 44 44 43 42 42 41 40 40 40 39 38 37 36 36 36 35 34 33 33 32 31 30 30 29 28 27 26 25 25 25 24 24 24 24 24
43 44 44 46 46 47 47 47 46 47 46 45 44 43 43 42 42 41 40 39 39 38 38 37 36 35 35 35 34 33 32 31 30 29 29 28 27 27 27 26 26 26 26
43 43 44 46 46 47 48 48 48 48 49 47 46 45 44 44 44 43 42 41 40 40 40 39 38 38 37 37 36 36 35 33 32 31 31 31 30 30 30 29 29 28 27
44 45 45 45 46 47 48 49 49 50 51 49 49 48 47 46 46 45 44 43 43 42 41 41 41 40 40 39 38 37 37 36 35 34 33 34 34 34 33 32 32 31 30
44 46 46 46 46 48 49 49 50 51 52 52 51 50 49 48 48 47 47 46 45 45 43 43 44 43 42 41 40 40 39 38 37 36 36 36 35 35 34 34 33 33 33
45 46 47 47 48 49 50 51 52 52 53 52 52 51 50 49 50 49 48 47 46 46 46 45 45 45 44 44 42 42 41 40 40 38 37 37 37 36 35 35 35 34 34
46 46 47 48 49 49 50 51 52 52 53 53 53 52 51 51 51 51 49 49 49 48 47 47 46 46 46 46 45 43 42 41 41 40 39 39 39 39 38 37 36 36 36
45 46 48 48 48 49 49 50 52 52 52 54 54 54 52 52 52 52 51 50 50 50 49 48 47 47 46 46 46 44 43 43 42 41 41 40 40 41 40 39 38 37 37
45 46 47 48 48 48 48 48 50 50 51 53 54 54 54 54 53 53 53 52 52 51 51 50 49 49 48 47 46 46 45 44 44 42 42 41 41 41 41 40 39 39 38
45 46 46 47 47 47 47 47 48 48 50 52 54 54 54 54 54 54 54 53 52 52 52 51 50 50 49 49 48 47 47 46 45 44 43 43 42 42 42 41 41 40 40
46 46 46 46 47 47 46 46 47 48 49 51 53 54 54 54 55 55 55 54 53 52 51 50 50 50 50 49 48 48 47 47 47 46 45 45 44 43 43 43 42 41 41
47 47 47 47 47 47 47 47 47 48 50 50 51 52 53 53 54 55 55 53 52 52 50 49 49 49 49 49 48 48 47 47 47 47 46 46 45 44 44 44 43 43 42
47 47 48 48 49 48 48 48 47 47 48 49 50 51 52 53 53 54 54 53 53 52 51 50 49 49 50 50 49 49 49 48 48 48 47 47 46 46 45 44 44 44 43
46 47 48 48 48 48 49 48 48 47 48 49 50 51 52 52 53 53 54 53 53 53 52 51 50 50 50 51 51 51 50 50 49 49 49 49 49 48 47 46 45 45 44
47 47 48 48 48 48 49 48 48 48 48 49 50 51 51 52 53 53 54 54 54 54 54 53 52 51 51 51 52 52 51 51 51 50 49 50 50 49 48 47 47 47 46
46 46 47 48 48 48 47 47 47 47 47 48 49 50 51 52 53 53 54 54 53 54 54 54 53 53 52 52 53 53 52 52 52 51 51 50 50 50 49 48 48 48 47
45 46 46 46 46 46 46 46 46 46 46 47 48 50 50 51 52 53 53 54 55 55 54 55 55 54 53 53 54 53 52 52 52 52 53 52 51 51 51 50 50 49 49
44 45 45 45 46 46 46 45 45 46 47 47 48 49 50 51 51 53 54 55 55 55 55 55 55 55 53 53 53 53 53 53 53 52 52 52 52 52 51 50 50 50 50
44 44 44 44 45 46 46 45 44 45 45 46 47 48 49 50 51 53 55 56 55 55 55 56 56 55 55 54 53 52 52 52 52 52 52 52 52 52 52 52 51 52 52
42 42 43 43 44 44 44 43 43 43 43 44 46 47 48 49 50 52 54 55 55 55 55 56 56 56 56 55 55 54 53 53 53 53 54 54 54 53 53 53 53 53 53
41 41 42 42 43 44 44 43 42 42 42 43 45 47 48 49 50 52 53 54 55 55 55 55 56 56 57 57 56 56 55 56 55 55 55 55 55 55 55 55 55 55 55
40 41 41 42 43 43 43 43 43 43 43 43 43 44 46 48 50 51 52 53 54 54 55 56 56 57 58 58 58 57 57 57 57 57 57 58 57 57 57 57 57 57 57
Wind_Direction
249 248 248 248 248 248 248 248 246 246 245 244 245 245 246 246 246 246 246 246 246 246 247 246 246 248 251 252 252 252 251 252 254 255 255 258 261 264 267 271 274 275 277
250 249 248 248 247 247 247 248 248 246 246 245 246 246 246 246 246 245 246 246 245 245 246 247 246 247 249 251 252 252 251 252 254 255 258 260 262 264 267 270 273 275 276
251 249 247 247 247 247 247 247 248 246 246 246 246 247 246 246 247 246 246 247 246 246 247 248 248 248 248 251 252 252 252 253 254 255 258 260 263 265 268 271 273 274 275
250 249 248 246 246 246 247 247 248 247 246 247 247 247 247 246 246 246 246 248 248 247 247 247 249 249 248 250 252 252 252 253 253 255 256 258 261 264 267 269 272 274 276
251 249 248 247 247 247 247 247 249 248 247 248 249 248 248 247 246 247 247 247 248 248 248 247 248 249 249 249 252 252 253 253 254 255 255 257 259 263 266 269 272 273 275
251 250 249 248 247 247 247 247 248 248 249 249 249 249 249 247 247 247 246 247 247 248 249 248 249 249 250 251 251 252 252 254 255 257 256 257 259 262 266 269 272 273 274
253 251 250 249 248 247 247 248 249 249 248 249 249 249 248 248 247 247 246 246 246 248 249 248 249 250 250 251 252 252 252 253 255 257 257 259 261 264 266 268 270 272 273
254 252 251 251 250 248 248 248 248 249 248 249 249 248 248 248 248 248 248 247 246 247 247 248 248 249 250 251 252 253 254 255 256 257 259 260 262 265 266 268 270 271 272
254 253 252 252 251 250 249 249 249 249 249 250 249 248 248 248 248 248 248 249 248 247 247 248 248 248 250 251 252 253 254 256 257 258 260 261 262 264 266 267 269 270 272
255 254 252 253 253 252 251 250 249 250 250 249 248 248 248 249 249 248 248 249 248 248 247 248 248 248 249 251 252 252 253 254 256 256 258 260 261 263 264 266 268 269 270
256 255 254 253 253 254 253 252 250 250 250 248 247 246 248 248 249 249 248 248 249 248 247 247 248 249 250 251 252 252 254 254 256 256 257 259 261 262 264 266 267 269 270
256 255 254 254 254 255 255 254 252 251 249 248 247 246 247 247 248 248 248 248 249 248 248 248 248 249 251 251 252 252 253 254 256 257 257 258 261 262 264 265 266 268 269
255 254 253 253 254 255 255 254 253 252 251 249 247 246 247 247 247 248 248 248 248 248 248 248 248 249 250 251 252 251 253 253 255 257 258 259 261 263 263 264 265 267 268
255 254 253 253 253 254 254 254 254 253 252 250 248 246 246 246 246 247 247 248 248 248 248 248 248 249 250 250 251 252 253 253 254 256 258 258 260 262 263 264 265 266 268
256 254 253 253 253 254 254 255 255 254 253 251 248 247 246 245 245 246 247 247 247 246 247 248 248 248 249 250 251 251 252 253 254 255 257 258 259 261 262 263 264 266 267
256 256 254 254 254 254 255 256 256 254 252 251 249 247 246 246 245 244 245 245 245 245 245 246 246 246 248 249 251 251 252 254 254 255 257 258 259 260 262 263 265 266 267
257 257 257 255 254 254 254 254 254 253 251 250 249 247 245 244 243 243 243 244 244 244 245 245 246 246 247 248 249 250 252 254 255 255 256 257 258 260 262 264 265 265 267
256 257 257 256 255 254 253 254 253 253 252 250 249 247 246 244 243 242 242 243 245 246 246 246 246 247 247 248 249 251 253 254 255 255 255 256 258 260 261 263 264 265 266
255 256 256 256 256 255 254 254 254 253 253 251 249 247 246 245 244 243 243 244 245 246 246 247 247 248 248 249 250 251 252 253 255 255 255 256 257 259 260 262 264 265 266
256 256 256 255 256 255 254 253 252 251 251 251 250 248 247 246 244 243 243 243 244 245 246 247 248 248 249 249 251 251 252 253 254 255 255 256 257 258 260 262 264 264 265
257 256 256 255 255 254 252 251 251 251 251 250 249 248 247 246 244 243 243 242 243 244 246 247 248 248 250 251 251 252 253 253 255 255 255 255 257 258 259 261 263 264 265
259 257 255 254 253 252 252 251 251 251 251 250 250 249 248 246 244 244 244 243 243 244 246 247 248 249 249 250 251 252 253 254 254 254 255 256 258 259 260 261 263 265 266
259 258 256 254 252 252 251 251 252 251 250 250 250 250 249 247 246 245 244 244 244 245 246 247 249 249 250 250 252 253 253 254 254 254 255 257 258 259 260 261 263 265 266
258 258 257 254 252 250 250 249 251 251 251 250 250 249 249 248 247 246 245 245 245 245 246 248 249 251 251 251 252 253 254 254 254 255 256 257 258 259 261 262 264 265 267
257 258 258 255 252 249 249 249 251 252 251 251 251 250 249 250 249 248 246 246 247 247 247 248 249 251 251 252 252 252 253 253 254 255 257 258 260 261 262 263 264 265 267
257 257 257 255 252 249 249 250 253 252 251 251 251 251 250 250 250 249 248 248 248 248 248 249 250 252 253 252 251 251 253 255 256 256 258 260 260 261 261 262 264 265 266
Height
5749 5752 5755 5758 5761 5764 5767 5770 5773 5777 5780 5783 5785 5788 5791 5793 5796 5799 5801 5803 5806 5808 5810 5811 5813 5815 5817 5819 5820 5822 5823 5824 5825 5826 5827 5828 5829 5829 5830 5830 5830 5830 5830
5738 5741 5745 5748 5752 5755 5758 5761 5765 5768 5771 5774 5778 5780 5783 5786 5789 5792 5794 5797 5799 5801 5803 5805 5807 5809 5811 5813 5815 5816 5818 5819 5821 5822 5823 5824 5824 5825 5825 5826 5826 5826 5826
5727 5730 5734 5738 5741 5745 5748 5752 5755 5759 5762 5766 5769 5772 5775 5777 5780 5783 5786 5789 5791 5794 5796 5799 5801 5803 5805 5807 5809 5811 5812 5814 5815 5817 5818 5819 5819 5820 5820 5821 5821 5821 5821
5716 5719 5723 5727 5730 5734 5738 5742 5746 5749 5753 5757 5760 5763 5766 5768 5771 5774 5777 5780 5783 5786 5789 5791 5794 5796 5798 5801 5802 5804 5806 5808 5809 5811 5812 5813 5814 5815 5815 5816 5816 5816 5816
5704 5707 5711 5715 5719 5723 5728 5731 5735 5739 5743 5746 5750 5753 5756 5759 5762 5765 5768 5771 5775 5777 5780 5783 5786 5789 5791 5793 5795 5797 5799 5801 5803 5804 5806 5807 5808 5809 5809 5810 5811 5811 5811
5693 5696 5699 5703 5707 5712 5716 5720 5724 5728 5732 5735 5739 5743 5746 5748 5751 5755 5758 5762 5765 5768 5771 5774 5777 5780 5783 5785 5788 5790 5792 5794 5796 5798 5799 5800 5801 5802 5803 5804 5804 5805 5805
5682 5685 5688 5692 5696 5700 5704 5708 5713 5717 5720 5724 5728 5731 5734 5737 5741 5744 5748 5751 5755 5758 5762 5765 5768 5771 5774 5777 5779 5782 5784 5786 5788 5790 5792 5793 5794 5796 5797 5797 5798 5798 5798
5671 5674 5677 5680 5684 5688 5692 5696 5700 5704 5708 5712 5715 5719 5723 5727 5730 5734 5737 5741 5744 5748 5752 5756 5759 5762 5765 5768 5771 5773 5776 5778 5780 5782 5784 5785 5786 5788 5789 5790 5790 5790 5791
5660 5663 5665 5669 5672 5675 5679 5683 5687 5691 5695 5699 5702 5707 5711 5715 5719 5723 5726 5730 5733 5737 5741 5745 5749 5752 5756 5759 5761 5764 5767 5769 5771 5773 5775 5776 5778 5779 5780 5781 5782 5782 5783
5648 5651 5654 5657 5660 5663 5666 5670 5674 5678 5681 5685 5689 5694 5699 5703 5707 5711 5715 5719 5722 5726 5730 5734 5738 5742 5745 5748 5752 5755 5757 5760 5762 5764 5766 5767 5769 5770 5771 5772 5773 5774 5774
5636 5638 5641 5644 5647 5650 5653 5656 5659 5664 5668 5672 5676 5680 5685 5690 5694 5699 5703 5707 5711 5715 5719 5723 5727 5731 5734 5737 5741 5744 5747 5750 5752 5754 5756 5758 5759 5761 5762 5763 5764 5765 5765
5623 5625 5628 5631 5634 5637 5639 5642 5645 5649 5653 5657 5662 5667 5672 5676 5682 5686 5691 5695 5699 5703 5707 5711 5715 5719 5723 5726 5730 5733 5736 5739 5741 5743 5746 5747 5749 5751 5752 5753 5754 5755 5756
5611 5613 5615 5618 5620 5623 5626 5628 5631 5635 5639 5643 5647 5652 5657 5663 5668 5672 5677 5682 5686 5691 5695 5699 5703 5707 5711 5715 5718 5722 5725 5728 5730 5733 5735 5737 5739 5741 5742 5743 5744 5745 5746
5598 5600 5602 5605 5608 5610 5613 5615 5618 5621 5625 5629 5633 5638 5643 5648 5653 5658 5663 5668 5673 5678 5682 5687 5691 5695 5699 5703 5707 5710 5713 5716 5719 5722 5724 5726 5728 5730 5732 5733 5734 5735 5736
5585 5587 5590 5592 5595 5597 5600 5602 5605 5608 5611 5614 5619 5623 5628 5633 5638 5644 5649 5654 5659 5664 5670 5674 5678 5683 5686 5690 5694 5698 5701 5705 5707 5710 5712 5714 5717 5719 5721 5722 5724 5725 5725
5572 5574 5577 5579 5581 5584 5587 5589 5592 5594 5597 5600 5604 5609 5613 5618 5623 5629 5634 5640 5645 5650 5656 5661 5665 5670 5674 5678 5682 5686 5689 5693 5696 5698 5700 5703 5705 5707 5709 5711 5712 5714 5714
5559 5561 5563 5566 5568 5571 5573 5576 5578 5581 5583 5587 5590 5595 5599 5604 5609 5614 5620 5626 5632 5637 5643 5649 5653 5657 5661 5665 5669 5673 5677 5680 5683 5686 5689 5691 5693 5696 5698 5699 5701 5702 5703
5546 5547 5549 5552 5554 5557 5560 5562 5565 5567 5570 5573 5577 5581 5585 5590 5595 5601 5607 5613 5618 5624 5630 5636 5640 5644 5648 5652 5656 5660 5664 5667 5671 5674 5676 5679 5681 5683 5685 5687 5689 5690 5691
5533 5534 5536 5538 5541 5543 5546 5549 5551 5554 5557 5560 5563 5567 5572 5576 5581 5587 5593 5599 5604 5610 5616 5621 5626 5630 5635 5639 5643 5647 5651 5654 5657 5660 5663 5666 5668 5670 5672 5674 5676 5678 5679
5519 5521 5523 5525 5527 5530 5533 5535 5538 5541 5544 5547 5550 5554 5558 5562 5567 5573 5579 5584 5590 5596 5601 5607 5612 5616 5621 5625 5629 5633 5637 5641 5644 5647 5650 5653 5655 5657 5659 5662 5663 5665 5666
5506 5508 5510 5511 5514 5516 5519 5522 5525 5528 5531 5534 5537 5540 5544 5548 5553 5558 5564 5570 5575 5581 5587 5592 5598 5602 5607 5611 5615 5620 5623 5627 5630 5633 5636 5639 5642 5645 5646 5648 5649 5651 5652
5492 5494 5496 5498 5501 5503 5506 5509 5512 5515 5518 5521 5524 5527 5531 5535 5540 5545 5550 5555 5561 5567 5573 5578 5583 5588 5593 5597 5601 5605 5609 5613 5617 5621 5623 5626 5628 5630 5632 5634 5636 5637 5639
5479 5481 5483 5485 5488 5490 5493 5496 5499 5502 5505 5508 5511 5515 5518 5522 5526 5531 5536 5541 5547 5552 5558 5564 5569 5574 5579 5583 5587 5591 5594 5598 5602 5606 5608 5612 5614 5616 5618 5620 5621 5623 5624
5466 5468 5470 5472 5475 5478 5481 5484 5487 5490 5493 5496 5499 5503 5506 5510 5514 5518 5523 5528 5533 5538 5544 5550 5556 5561 5564 5567 5571 5575 5579 5584 5587 5590 5593 5597 5599 5602 5603 5605 5607 5608 5609
5453 5455 5457 5459 5462 5466 5469 5472 5475 5478 5482 5485 5487 5490 5494 5498 5501 5505 5510 5515 5520 5524 5529 5534 5539 5544 5548 5552 5556 5560 5564 5567 5571 5575 5578 5581 5584 5586 5588 5590 5591 5592 5593
5441 5443 5445 5447 5450 5454 5457 5461 5464 5467 5470 5473 5476 5479 5482 5485 5488 5491 5496 5501 5506 5510 5514 5519 5524 5528 5532 5536 5540 5544 5548 5551 5555 5559 5562 5565 5567 5569 5572 5574 5575 5576 5577